• în România
  • Lista ţărilor
  • Pe 7 zile
  • Temperatura apei
  • Hartă satelitară
  • Meteo pe hartă
  • Widget-uri
  • user-avatar
    Intrare

    Meteo pe oră la Kipungo

    Astăzi, 22 Februarie, Miercuri

    Timp Temperatura Precipitaţii Vânt Presiune Umiditate
    00:00 +17°C° 0 mm 2 m/s 652 mmHg 78%
    01:00 +17°C° 0 mm 2 m/s 652 mmHg 81%
    02:00 +16°C° 0 mm 2 m/s 652 mmHg 82%
    03:00 +16°C° 0 mm 1 m/s 651 mmHg 84%
    04:00 +15°C° 0 mm 1 m/s 651 mmHg 86%
    05:00 +16°C° 0 mm 1 m/s 652 mmHg 83%
    06:00 +16°C° 0 mm 1 m/s 652 mmHg 80%
    07:00 +18°C° 0 mm 1 m/s 652 mmHg 77%
    08:00 +20°C° 0 mm 2 m/s 653 mmHg 65%
    09:00 +24°C° 0 mm 2 m/s 654 mmHg 52%
    10:00 +27°C° 0 mm 2 m/s 655 mmHg 39%
    11:00 +28°C° 0 mm 3 m/s 655 mmHg 36%
    12:00 +29°C° 0 mm 3 m/s 654 mmHg 33%
    13:00 +31°C° 0 mm 3 m/s 654 mmHg 31%
    14:00 +32°C° 0 mm 4 m/s 654 mmHg 32%
    15:00 +30°C° 0 mm 4 m/s 653 mmHg 34%
    16:00 +30°C° 0 mm 4 m/s 652 mmHg 35%
    17:00 +27°C° 0 mm 3 m/s 652 mmHg 42%
    18:00 +25°C° 0 mm 3 m/s 652 mmHg 50%
    19:00 +21°C° 0 mm 2 m/s 652 mmHg 57%
    20:00 +20°C° 0 mm 2 m/s 652 mmHg 60%
    21:00 +19°C° 0 mm 2 m/s 652 mmHg 63%
    22:00 +18°C° 0 mm 2 m/s 653 mmHg 66%
    23:00 +18°C° 0 mm 2 m/s 652 mmHg 68%

    Mâine, 23 Februarie, Joi

    Timp Temperatura Precipitaţii Vânt Presiune Umiditate
    00:00 +17°C° 0 mm 2 m/s 652 mmHg 70%
    01:00 +16°C° 0 mm 2 m/s 652 mmHg 73%
    02:00 +16°C° 0 mm 1 m/s 652 mmHg 75%
    03:00 +15°C° 0 mm 1 m/s 651 mmHg 76%
    04:00 +14°C° 0 mm 1 m/s 651 mmHg 78%
    05:00 +15°C° 0 mm 1 m/s 651 mmHg 75%
    06:00 +15°C° 0 mm 0 m/s 652 mmHg 72%
    07:00 +17°C° 0 mm 0 m/s 653 mmHg 69%
    08:00 +22°C° 0 mm 1 m/s 653 mmHg 57%
    09:00 +25°C° 0 mm 1 m/s 654 mmHg 46%
    10:00 +28°C° 0 mm 1 m/s 655 mmHg 35%
    11:00 +29°C° 0 mm 1 m/s 655 mmHg 32%
    12:00 +31°C° 0 mm 2 m/s 655 mmHg 30%
    13:00 +32°C° 0 mm 2 m/s 654 mmHg 28%
    14:00 +32°C° 0 mm 2 m/s 654 mmHg 29%
    15:00 +31°C° 0 mm 3 m/s 653 mmHg 30%
    16:00 +31°C° 0 mm 3 m/s 652 mmHg 31%
    17:00 +28°C° 0 mm 3 m/s 652 mmHg 38%
    18:00 +25°C° 0 mm 2 m/s 652 mmHg 45%
    19:00 +23°C° 0 mm 2 m/s 651 mmHg 53%
    20:00 +21°C° 0 mm 2 m/s 652 mmHg 55%
    21:00 +20°C° 0 mm 2 m/s 652 mmHg 58%
    22:00 +19°C° 0 mm 2 m/s 653 mmHg 61%
    23:00 +18°C° 0 mm 2 m/s 652 mmHg 64%

    Poimâine, 24 Februarie, Vineri

    Timp Temperatura Precipitaţii Vânt Presiune Umiditate
    00:00 +17°C° 0 mm 2 m/s 652 mmHg 67%
    01:00 +17°C° 0 mm 2 m/s 652 mmHg 70%
    02:00 +16°C° 0 mm 1 m/s 651 mmHg 72%
    03:00 +15°C° 0 mm 1 m/s 651 mmHg 75%
    04:00 +15°C° 0 mm 1 m/s 650 mmHg 77%
    05:00 +16°C° 0 mm 1 m/s 651 mmHg 75%
    06:00 +16°C° 0 mm 0 m/s 652 mmHg 72%
    07:00 +17°C° 0 mm 0 m/s 652 mmHg 70%
    08:00 +21°C° 0 mm 0 m/s 653 mmHg 57%
    09:00 +25°C° 0 mm 0 m/s 654 mmHg 45%
    10:00 +28°C° 0 mm 0 m/s 655 mmHg 33%
    11:00 +32°C° 0 mm 1 m/s 655 mmHg 30%
    12:00 +33°C° 0 mm 1 m/s 655 mmHg 28%
    13:00 +34°C° 0 mm 1 m/s 654 mmHg 25%
    14:00 +35°C° 0 mm 2 m/s 654 mmHg 26%
    15:00 +34°C° 0 mm 2 m/s 653 mmHg 26%
    16:00 +32°C° 0 mm 2 m/s 652 mmHg 27%
    17:00 +29°C° 0 mm 2 m/s 652 mmHg 33%
    18:00 +27°C° 0 mm 2 m/s 652 mmHg 39%
    19:00 +24°C° 0 mm 2 m/s 651 mmHg 45%
    20:00 +23°C° 0 mm 2 m/s 652 mmHg 48%
    21:00 +21°C° 0 mm 2 m/s 652 mmHg 52%
    22:00 +20°C° 0 mm 2 m/s 653 mmHg 55%
    23:00 +19°C° 0 mm 2 m/s 652 mmHg 60%

    25 Februarie, Sâmbătă

    Timp Temperatura Precipitaţii Vânt Presiune Umiditate
    00:00 +19°C° 0 mm 2 m/s 652 mmHg 65%
    01:00 +18°C° 0 mm 2 m/s 652 mmHg 70%
    02:00 +18°C° 0 mm 1 m/s 651 mmHg 71%
    03:00 +18°C° 0 mm 1 m/s 651 mmHg 71%
    04:00 +18°C° 0 mm 1 m/s 651 mmHg 72%
    05:00 +19°C° 0 mm 1 m/s 652 mmHg 71%
    06:00 +19°C° 0 mm 1 m/s 652 mmHg 69%
    07:00 +20°C° 0 mm 1 m/s 653 mmHg 68%
    08:00 +23°C° 0 mm 1 m/s 654 mmHg 58%
    09:00 +26°C° 0 mm 1 m/s 654 mmHg 48%
    10:00 +30°C° 0 mm 2 m/s 655 mmHg 39%
    11:00 +31°C° 0 mm 1 m/s 655 mmHg 36%
    12:00 +32°C° 0 mm 1 m/s 654 mmHg 34%
    13:00 +34°C° 0 mm 1 m/s 654 mmHg 31%
    14:00 +32°C° 0,2 mm 1 m/s 653 mmHg 37%
    15:00 +31°C° 0,2 mm 1 m/s 652 mmHg 42%
    16:00 +29°C° 0,2 mm 2 m/s 651 mmHg 47%
    17:00 +27°C° 0,1 mm 2 m/s 651 mmHg 53%
    18:00 +26°C° 0,1 mm 2 m/s 651 mmHg 59%
    19:00 +24°C° 0,1 mm 2 m/s 652 mmHg 64%
    20:00 +23°C° 0 mm 2 m/s 652 mmHg 67%
    21:00 +21°C° 0 mm 2 m/s 652 mmHg 69%
    22:00 +20°C° 0 mm 2 m/s 652 mmHg 72%
    23:00 +19°C° 0 mm 2 m/s 652 mmHg 75%

    26 Februarie, Duminică

    Timp Temperatura Precipitaţii Vânt Presiune Umiditate
    00:00 +20°C° 0 mm 1 m/s 652 mmHg 79%
    01:00 +19°C° 0 mm 1 m/s 651 mmHg 82%
    02:00 +19°C° 0 mm 1 m/s 651 mmHg 83%
    03:00 +18°C° 0 mm 1 m/s 651 mmHg 84%
    04:00 +18°C° 0 mm 1 m/s 651 mmHg 86%
    05:00 +19°C° 0 mm 1 m/s 651 mmHg 82%
    06:00 +20°C° 0 mm 1 m/s 652 mmHg 79%
    07:00 +19°C° 0 mm 0 m/s 652 mmHg 75%
    08:00 +24°C° 0 mm 1 m/s 653 mmHg 64%
    09:00 +27°C° 0 mm 1 m/s 654 mmHg 53%
    10:00 +30°C° 0 mm 1 m/s 655 mmHg 42%
    11:00 +31°C° 0 mm 1 m/s 654 mmHg 39%
    12:00 +32°C° 0 mm 1 m/s 654 mmHg 35%
    13:00 +33°C° 0 mm 1 m/s 653 mmHg 32%
    14:00 +32°C° 0,1 mm 1 m/s 652 mmHg 37%
    15:00 +31°C° 0,1 mm 2 m/s 652 mmHg 42%
    16:00 +30°C° 0,1 mm 2 m/s 651 mmHg 47%
    17:00 +28°C° 0,1 mm 2 m/s 651 mmHg 55%
    18:00 +25°C° 0,1 mm 1 m/s 651 mmHg 62%
    19:00 +23°C° 0,1 mm 1 m/s 651 mmHg 70%
    20:00 +23°C° 0 mm 1 m/s 651 mmHg 71%
    21:00 +22°C° 0 mm 1 m/s 651 mmHg 73%
    22:00 +21°C° 0 mm 1 m/s 651 mmHg 74%
    23:00 +21°C° 0 mm 1 m/s 651 mmHg 77%

    27 Februarie, Luni

    Timp Temperatura Precipitaţii Vânt Presiune Umiditate
    00:00 +20°C° 0 mm 1 m/s 650 mmHg 79%
    01:00 +19°C° 0 mm 1 m/s 650 mmHg 81%
    02:00 +19°C° 0 mm 1 m/s 650 mmHg 82%
    03:00 +19°C° 0 mm 1 m/s 650 mmHg 83%
    04:00 +17°C° 0 mm 0 m/s 650 mmHg 84%
    05:00 +18°C° 0,1 mm 0 m/s 650 mmHg 83%
    06:00 +18°C° 0,1 mm 0 m/s 651 mmHg 83%
    07:00 +19°C° 0,1 mm 0 m/s 651 mmHg 82%
    08:00 +22°C° 0,3 mm 1 m/s 652 mmHg 80%
    09:00 +23°C° 0,3 mm 1 m/s 652 mmHg 78%
    10:00 +24°C° 0,3 mm 1 m/s 652 mmHg 76%
    11:00 +24°C° 0,4 mm 1 m/s 652 mmHg 74%
    12:00 +25°C° 0,4 mm 2 m/s 651 mmHg 72%
    13:00 +25°C° 0,4 mm 2 m/s 651 mmHg 70%
    14:00 +25°C° 0,4 mm 3 m/s 650 mmHg 72%
    15:00 +24°C° 0,4 mm 3 m/s 650 mmHg 73%
    16:00 +24°C° 0,4 mm 3 m/s 649 mmHg 74%
    17:00 +22°C° 0,1 mm 3 m/s 650 mmHg 78%
    18:00 +21°C° 0,1 mm 2 m/s 650 mmHg 81%
    19:00 +20°C° 0,1 mm 2 m/s 650 mmHg 85%
    20:00 +20°C° 0,3 mm 2 m/s 650 mmHg 86%
    21:00 +21°C° 0,3 mm 1 m/s 651 mmHg 87%
    22:00 +20°C° 0,3 mm 1 m/s 651 mmHg 88%
    23:00 +20°C° 1,7 mm 1 m/s 651 mmHg 90%
    Arată mai mult